Location: Colondannes
(46.2895°N, 1.6102°E)
Time: 06:31:16
(UTC+00:00)

Daily predictions for brighter satellites

Satellite Brightness Start Highest point End
(mag) Time Altitude Azimuth Time Altitude Azimuth Time Altitude Azimuth
Cosmos 1140 Rocket 3.5 19:23:36 10° S 19:28:47 64° ESE 19:33:59 10° NNE
Resurs 1-3 4.3 19:27:23 10° SE 19:31:25 38° ENE 19:35:30 10° N
OBJECT-B 1.6 19:30:57 10° SE 19:33:58 34° ENE 19:36:59 10° N
Cosmos 1441 Rocket 3.2 19:30:23 10° SSW 19:34:09 83° W 19:37:54 10° N
IRIDIUM 106 4.3 19:29:28 10° S 19:34:38 72° E 19:39:51 10° N
Cosmos 1633 Rocket 3.6 19:32:48 10° SSE 19:36:55 40° E 19:41:03 10° NNE
Cosmos 1184 Rocket 3.8 19:34:58 10° SSE 19:37:46 26° E 19:40:35 10° NE
SL-08 RB Rocket 3.9 19:34:32 10° S 19:39:11 79° WSW 19:43:53 10° NNW
Cosmos 921 Rocket 3.7 19:37:05 10° N 19:40:59 35° ENE 19:44:50 10° SE
Cosmos 2123 Rocket 4.3 19:36:24 10° N 19:42:28 52° ENE 19:48:34 10° SSE
Cosmos 2239 Rocket 4.5 19:36:44 10° S 19:42:48 69° E 19:48:56 10° NNE
Meteor 1-27 Rocket 3.9 19:41:51 10° N 19:47:50 86° ENE 19:53:47 10° S
ARGOS 4.2 19:48:04 10° S 19:53:15 47° W 19:58:26 10° NNW
Cosmos 1707 Rocket 3.6 19:49:30 10° N 19:53:51 85° W 19:58:10 10° S
CZ-2C R/B 2.6 19:49:37 10° NNE 19:54:51 82° ESE 20:00:07 10° SSW
NOSS 3-2 (A) 3.3 19:49:38 10° SSW 19:55:14 68° ESE 20:01:39 10° NE
Cosmos 192 4.3 19:51:28 10° NNW 19:56:24 78° ENE 20:01:19 10° SSE
USA 267 4.1 19:53:48 10° ENE 19:59:01 25° SE 20:04:13 10° S
SL-16 R/B 3.0 19:56:42 10° NNW 20:02:00 38° NE 20:06:28 14° ESE
SL-4 R/B 3.0 19:58:10 10° W 20:02:04 43° NNW 20:05:41 10° ENE
BREEZE-M DEB (TANK) 2.5 20:00:45 10° W 20:03:11 61° N 20:08:32 10° ENE
MONITOR-E 3.9 20:01:00 10° S 20:03:19 60° W 20:05:38 10° NNW
BREEZE-M DEB (TANK) 4.2 19:59:44 10° WNW 20:03:53 20° WSW 20:06:15 10° S
SL-27 R/B 3.9 20:04:28 16° ESE 20:05:11 17° E 20:07:25 10° ENE
NOSS 3-2 (C) 3.5 20:00:33 10° SSW 20:05:58 50° ESE 20:12:09 10° NE
Cosmos 2242 Rocket 4.5 20:02:12 10° N 20:06:11 32° ENE 20:09:08 16° SE
Cosmos 1470 Rocket 3.9 20:02:31 10° SSE 20:06:43 46° E 20:10:54 10° NNE
Sich 1 3.9 20:03:11 10° SSW 20:07:32 54° WNW 20:11:54 10° N
Cosmos 2082 Rocket 2.6 20:04:58 10° SW 20:10:38 68° WNW 20:16:19 10° NNE
BREEZE-M DEB (TANK) 2.9 20:07:45 10° W 20:10:50 42° N 20:12:31 12° ENE
USA 186 4.0 20:10:59 10° SW 20:12:13 13° W 20:13:28 10° WNW
Meteor 2-20 Rocket 4.4 20:09:02 10° N 20:15:14 79° E 20:21:23 10° SSE
Meteor 1-4 Rocket 3.2 20:14:27 10° NNW 20:17:49 52° W 20:21:11 10° S
ERS-1 Rocket 4.3 20:16:15 15° ESE 20:19:03 24° ENE 20:22:59 10° N
Cosmos 2322 Rocket 2.9 20:13:58 10° NNW 20:19:23 42° NE 20:23:14 18° ESE
H-2A R/B 4.4 20:15:41 10° SW 20:19:27 21° W 20:23:11 10° NW
Cosmos 1862 Rocket 3.6 20:17:12 10° N 20:21:40 89° W 20:25:58 11° S
Cosmos 1850 Rocket 4.2 20:18:14 10° S 20:23:16 47° ESE 20:28:20 10° NNE
Meteor 1-25 Rocket 4.2 20:19:42 10° S 20:25:13 68° E 20:30:51 10° NNE
Cosmos 676 Rocket 4.4 20:20:49 10° SSW 20:26:07 68° WNW 20:31:28 10° NNE
SPOT 1/Viking Rocket 4.2 20:23:32 19° SE 20:26:49 40° ENE 20:31:40 10° N
Cosmos 841 Rocket 4.4 20:22:09 10° N 20:26:57 35° ENE 20:29:56 20° ESE
USA 32 4.0 20:22:47 10° S 20:27:58 71° E 20:33:12 10° N
Cosmos 2360 Rocket 3.4 20:23:27 10° N 20:28:23 29° NE 20:31:48 17° E
USA 276 2.2 20:25:26 10° WNW 20:28:36 69° NNE 20:30:11 27° E
X-37B 0.9 20:26:07 10° W 20:29:12 51° SSW 20:30:22 31° SE
Meteor 1-18 Rocket 4.3 20:24:25 10° N 20:29:56 59° ENE 20:33:52 19° SSE
Terra 3.5 20:27:56 14° E 20:29:58 18° ENE 20:33:13 10° NNE
ATLAS 3B R/B 3.3 20:25:40 10° S 20:31:13 30° ESE 20:36:48 10° NE
IGS 5A 3.8 20:29:39 23° SE 20:31:54 47° ENE 20:35:54 10° N
Cosmos 1238 Rocket 2.0 20:30:32 21° S 20:32:18 66° E 20:35:19 10° NNE
USA 234 4.1 20:29:08 10° E 20:35:16 45° NNE 20:41:25 10° NW
Cosmos 468 Rocket 4.0 20:30:47 10° NNW 20:36:07 83° ENE 20:39:42 21° SSE
CZ-2C R/B 4.1 20:31:53 10° N 20:36:26 67° WNW 20:40:52 10° SSW
Cosmos 1934 Rocket 4.4 20:30:10 10° SSW 20:36:31 70° W 20:42:52 10° N
Cosmos 1980 Rocket 3.3 20:32:05 10° NW 20:37:21 40° WSW 20:42:34 10° S
Cosmos 44 3.6 20:32:49 10° NNW 20:37:42 60° NE 20:40:36 25° ESE
Resurs 01 Rocket 1.9 20:34:56 13° S 20:38:51 68° WSW 20:43:17 10° NNW
Lacrosse 5 1.9 20:33:49 10° NW 20:38:53 72° SW 20:41:50 25° SE
Cosmos 1602 3.7 20:37:46 16° S 20:40:45 69° E 20:44:41 10° NNE
GP-B 3.1 20:40:28 10° N 20:44:56 87° W 20:48:37 15° S
SPOT 3 Rocket 4.5 20:41:52 10° S 20:46:50 46° W 20:51:50 10° NNW
Cosmos 1933 Rocket 3.5 20:42:59 11° S 20:47:13 86° E 20:51:42 10° N
Cosmos 405 Rocket 2.9 20:50:04 11° SSW 20:53:36 68° WNW 20:57:22 10° N
Spot 2 Rocket 3.4 20:51:17 25° SSE 20:54:17 80° ENE 20:59:23 10° NNW
Cosmos 1814 Rocket 4.5 20:49:41 10° NNW 20:54:44 47° ENE 20:56:56 30° ESE
USA 238 DEB 4.2 20:49:19 10° SW 20:55:53 61° NW 21:02:46 10° NE
USA 238 4.2 20:49:25 10° SW 20:55:59 61° NW 21:02:52 10° NE
Cosmos 1515 3.6 20:54:34 10° N 20:58:24 78° E 20:59:36 42° SSE
Cosmos 1869 Rocket 3.9 20:57:44 36° SE 20:58:55 45° E 21:03:12 10° NNE
CENTAUR R/B 2.6 20:53:02 10° SW 20:58:59 83° NW 21:06:08 10° NE
Okean 1-7 2.9 20:55:56 10° N 21:00:16 75° E 21:01:52 38° SSE
Cosmos 1741 Rocket 4.0 20:56:54 10° SSW 21:02:10 86° WNW 21:07:29 10° NNE
Cosmos 1437 Rocket 2.7 21:02:21 10° NNW 21:06:08 78° W 21:07:19 42° S
OBJECT-B 3.7 21:04:38 10° SW 21:06:28 14° W 21:08:18 10° WNW
Cosmos 1763 Rocket 3.9 21:05:07 10° NNW 21:10:22 59° WSW 21:13:14 26° S
Cosmos 1703 Rocket 3.6 21:06:14 10° NNW 21:10:35 76° W 21:12:20 35° S
H-2A R/B 3.9 21:07:07 10° N 21:11:12 61° WNW 21:14:44 14° SSW
Cosmos 1570 Rocket 4.0 21:07:30 10° NNW 21:12:52 81° ENE 21:14:58 38° SSE
Cosmos 2333 Rocket 3.5 21:07:56 10° N 21:12:53 28° NE 21:15:19 21° E
ATLAS 5 CENTAUR R/B 3.0 21:10:41 10° NNW 21:13:14 34° NE 21:14:58 26° E
Cosmos 2084 Rocket 4.1 21:09:07 10° SW 21:13:15 56° NW 21:17:30 10° NNE
Landsat 7 4.1 21:15:20 28° S 21:17:42 62° W 21:22:27 10° NNW
SPOT 5 2.7 21:17:39 49° ESE 21:18:33 62° ENE 21:22:56 10° N
SWARM C 4.4 21:15:28 10° N 21:18:41 76° NE 21:18:41 76° NE
SWARM A 4.1 21:15:34 10° N 21:18:54 87° ENE 21:18:54 87° ENE
NOSS 5 (C) 4.5 21:15:44 10° SSW 21:20:10 79° SE 21:23:33 10° NE
Meteor 1-5 Rocket 4.3 21:18:36 34° SSE 21:21:12 63° E 21:27:02 10° NNE
Cosmos 2208 Rocket 3.9 21:19:06 10° NNW 21:24:22 85° ENE 21:25:57 46° SSE
Cosmos 1733 Rocket 4.2 21:29:41 29° ENE 21:29:41 29° ENE 21:32:53 10° NNE
Meteor 1-11 Rocket 3.9 21:31:46 45° SE 21:32:57 53° E 21:38:35 10° NNE
Lacrosse 4 Rocket 2.4 21:37:37 34° ENE 21:37:37 34° ENE 21:40:16 10° NE
Tsikada Rocket 4.4 21:31:07 10° N 21:37:13 47° ENE 21:38:46 39° ESE
SL-27 R/B 4.3 21:37:55 15° WSW 21:40:04 28° WNW 21:43:00 10° N
Cosmos 2100 Rocket 3.9 21:36:57 29° SSW 21:40:16 84° W 21:46:29 10° N
SL-4 R/B 2.9 21:38:35 10° WNW 21:42:12 38° N 21:42:59 33° NE
Meteor 2-4 Rocket 3.9 21:37:08 10° NNW 21:42:39 64° W 21:44:40 38° SSW
USA 267 3.1 21:36:05 10° NE 21:42:40 83° SE 21:49:12 10° SW
Cosmos 2219 Rocket 3.0 21:37:34 10° NNW 21:42:53 39° NE 21:44:23 33° E
Cosmos 540 Rocket 3.8 21:37:58 10° NNW 21:43:04 60° WSW 21:44:28 44° SSW
Cosmos 2173 Rocket 3.9 21:41:11 32° SSW 21:44:16 84° W 21:50:24 10° N
SL-16 R/B 3.2 21:40:54 10° NW 21:46:06 38° WSW 21:48:19 27° SSW
Cosmos 1242 Rocket 3.6 21:48:16 10° N 21:50:53 38° NNE 21:50:53 38° NNE
SAR-Lupe-2 4.1 21:50:47 10° N 21:54:04 57° NW 21:54:04 57° NW
Meteor 1-23 Rocket 4.4 21:50:34 10° N 21:56:21 60° ENE 21:57:14 53° ESE
Cosmos 2322 3.7 21:50:46 10° NNW 21:56:26 66° ENE 21:57:25 56° ESE
Cosmos 1725 Rocket 3.9 21:55:18 51° SSE 21:56:50 70° E 22:03:09 10° NNE
Cosmos 1459 Rocket 4.2 21:53:46 29° SSW 21:57:10 69° W 22:03:33 10° N
ERS-1 Rocket 3.5 21:56:14 40° SW 21:57:31 51° W 22:02:25 10° NNW
Cosmos 1833 4.1 21:58:11 49° SSW 21:59:49 85° ESE 22:05:32 10° NNE
SL-08 R/B 4.3 21:59:40 55° SSE 22:01:04 77° E 22:07:10 10° N
Cosmos 2346 Rocket 4.3 21:55:57 10° N 22:02:02 86° W 22:03:32 54° S
Cosmos 1536 3.3 22:03:04 53° NNE 22:03:04 53° NNE 22:06:12 10° N
Meteor 1-13 Rocket 4.2 21:56:42 10° NNW 22:02:13 71° W 22:03:24 54° SSW
Cosmos 2322 Rocket 3.3 21:58:14 10° NW 22:03:20 34° WSW 22:05:04 28° SW
Cosmos 2016 Rocket 4.0 22:02:20 45° S 22:04:29 86° W 22:10:55 10° N
Cosmos 1378 Rocket 4.3 22:01:11 10° N 22:04:52 42° NE 22:04:52 42° NE
Cosmos 2221 Rocket 3.7 22:01:01 10° NNW 22:05:30 68° W 22:05:37 68° WSW
Terra 2.0 22:06:49 59° SW 22:07:15 62° WSW 22:12:00 10° NNW
Okean 3 4.1 22:04:21 10° NNW 22:08:31 49° W 22:08:38 49° W
COSMOS 2487 4.2 22:12:29 29° N 22:12:29 29° N 22:14:18 10° NNE
Cosmos 2333 4.1 22:05:32 10° NNW 22:11:23 85° ENE 22:12:06 69° SE
Cosmos 1666 3.6 22:12:27 48° NNW 22:12:27 48° NNW 22:15:26 10° N
Cosmos 2360 Rocket 2.5 22:07:11 10° NW 22:12:40 53° WSW 22:13:33 48° SW
USA 234 3.1 22:16:21 55° SE 22:17:59 85° SW 22:24:34 10° NW
Iridium 4 Rocket 3.9 22:18:30 41° W 22:18:42 41° W 22:22:40 10° N
Cosmos 1864 Rocket 4.5 22:17:15 52° SSW 22:18:52 80° W 22:25:12 10° N
Lacrosse 5 4.1 22:18:36 10° W 22:21:01 14° WSW 22:21:01 14° WSW
ATLAS 3B R/B 2.9 22:14:54 10° SW 22:21:27 64° NW 22:28:05 10° NE
MOS 1-B Rocket 3.8 22:17:29 10° NNE 22:23:04 66° ESE 22:23:10 65° ESE
Cosmos 2297 Rocket 4.2 22:32:11 16° ENE 22:32:11 16° ENE 22:33:57 10° ENE
Cosmos 1743 4.3 22:35:21 31° NNE 22:35:21 31° NNE 22:37:31 10° NNE
Cosmos 2233 Rocket 3.9 22:34:08 69° S 22:34:59 87° E 22:41:21 10° N
Thor Agena Rocket 4.1 22:31:01 10° NNE 22:35:03 46° ENE 22:35:03 46° ENE
COSMOS 2428 2.6 22:33:53 10° NNW 22:39:40 87° ENE 22:39:48 85° ESE
Cosmos 44 Rocket 3.5 22:38:31 10° NW 22:42:56 69° NW 22:42:56 69° NW
Cosmos 2237 Rocket 3.0 22:38:38 10° NNW 22:43:58 41° NE 22:44:34 40° ENE
Cosmos 1271 Rocket 4.2 22:42:14 10° NNW 22:44:32 35° NNW 22:44:32 35° NNW
NOSS 0 Rocket 4.0 22:45:02 10° NNW 22:51:16 68° ENE 22:51:50 65° E
Cosmos 2333 Rocket 2.5 22:51:52 10° NNW 22:57:19 57° W 22:57:19 57° W
Cosmos 1503 Rocket 4.1 22:58:15 73° NNE 22:58:15 73° NNE 23:03:07 10° NNE
Geosat 4.1 22:58:12 70° N 22:58:12 70° N 23:02:46 10° NNW
Meteor 2-11 Rocket 4.4 23:06:27 74° WSW 23:06:47 76° W 23:12:55 10° N
Lacrosse 4 Rocket 3.6 23:13:52 19° WNW 23:15:08 22° NW 23:18:25 10° N
ALOS 2 3.6 23:17:00 44° N 23:17:00 44° N 23:20:03 10° NNW
Cosmos 968 Rocket 4.4 23:17:23 40° WNW 23:17:52 41° WNW 23:22:44 10° N
Cosmos 773 Rocket 4.3 23:13:17 10° NNW 23:17:38 61° N 23:17:38 61° N
Cosmos 2034 Rocket 4.3 23:19:27 54° E 23:19:27 54° E 23:25:25 10° NNE
Cosmos 2227 Rocket 3.3 23:22:00 33° ENE 23:22:00 33° ENE 23:25:41 10° NE
Cosmos 1072 Rocket 4.3 23:20:38 81° ENE 23:20:38 81° ENE 23:26:37 10° N
Cosmos 1891 Rocket 4.4 23:21:57 82° ESE 23:22:02 82° E 23:28:27 10° N
USA 267 4.2 23:19:13 10° NE 23:25:23 46° NNW 23:31:33 10° W
Cosmos 2219 Rocket 3.2 23:21:37 10° NW 23:26:05 36° W 23:26:05 36° W
Cosmos 1538 Rocket 4.4 23:31:13 10° NNW 23:35:35 58° NNE 23:35:35 58° NNE
Cosmos 1607 4.1 23:40:18 10° NNW 23:46:44 67° NE 23:47:26 62° E
